Location: B�retswil
(47.3376°N, 8.8534°E)
Time: 19:33:31
(UTC+00:00)

Cosmos 1844 - Pass Details

Date: 03 March 2021
Orbit: 822 x 868 km, 70.9° (Epoch: 14 April)

Event Time Altitude Azimuth Distance (km) Brightness Sun altitude
Rises 18:33:43 0° 333° (NNW) 3,460 7.4 -14.5°
Reaches altitude 10° 18:36:13 10° 335° (NNW) 2,516 6.6 -14.9°
Maximum altitude 18:42:00 74° 61° (ENE) 898 3.7 -15.9°
Enters shadow 18:47:03 14° 146° (SE) 2,231 5.5 -16.7°
